[[{"header":{"parameterUnit":"m.s-1","parameterCategory":2,"la1":30.2991,"la2":30.254,"lo1":-89.0895,"lo2":-89.0444,"dy":0.0017,"dx":0.0017,"nx":28,"ny":28,"refTime":"2023-10-27T03:00:00:Z","depth":"0","parameterNumber":2,"parameterNumberName":"U-component_of_CURRENTS"},"data":[0,0,0,0,0,0,0,0,0,0,0,0,0,0,0,0,0,0,0,0,0,0,0,0,0,0,0,0,0,0,0,0,0,0,0,0,0,0,0,0,0,0,0,0,0,0,0,0,0,0,0,0,0,0,0,0,0,0,0.324,0.3242,0,0.338,0.3382,0.3383,0.3441,0.344,0.344,0.344,0.3553,0.3556,0.356,0,0,0,0,0,0,0,0,0,0,0,0,0,0.318,0.3179,0.324,0.3242,0.3244,0.338,0.3382,0.3384,0.3441,0.344,0.344,0.344,0.3552,0.3556,0.356,0,0,0,0,0,0,0,0,0,0,0,0,0,0.3252,0.3179,0.324,0.3288,0.3294,0.3379,0.3382,0.3384,0.3441,0.344,0.344,0.3439,0.3551,0.3556,0.3561,0.3603,0,0,0.3576,0.3578,0,0,0,0,0,0,0,0,0.3247,0.3254,0.3279,0.3285,0.3291,0.3392,0.3402,0.3456,0.3441,0.3386,0.344,0.3439,0.3497,0.3506,0.3535,0.3608,0.3613,0.3576,0.358,0.3582,0.3583,0,0,0,0,0,0,0,0.3242,0.3249,0.3296,0.3281,0.3288,0.3356,0.3364,0.3413,0.3443,0.3391,0.3395,0.3409,0.35,0.353,0.3538,0.3615,0.3576,0.3581,0.3584,0.3586,0.3734,0.3734,0,0,0,0,0,0,0.3215,0.3243,0.3292,0.33,0.3267,0.3357,0.3366,0.3361,0.3443,0.3455,0.341,0.3412,0.3522,0.3532,0.3542,0.3629,0.3582,0.3586,0.3589,0.3733,0.3734,0.3735,0,0,0,0,0,0,0.3213,0.3218,0.3286,0.3276,0.3289,0.3357,0.3352,0.3364,0.3403,0.3458,0.3469,0.3436,0.3522,0.3535,0.3593,0.3632,0.3589,0.3593,0.3732,0.3733,0.3734,0.3781,0,0,0,0,0,0,0.321,0.3215,0.3209,0.3273,0.3289,0.3345,0.3352,0.3367,0.3411,0.3415,0.3484,0.3494,0.3522,0.3586,0.3598,0.3638,0.3597,0.373,0.3732,0.3734,0.3778,0.3784,0.3788,0,0,0,0,0,0.3208,0.3204,0.3208,0.3215,0.3275,0.3346,0.3361,0.3409,0.3413,0.344,0.3479,0.3492,0.3605,0.3591,0.3605,0.3648,0.373,0.3732,0.3734,0.3776,0.3783,0.3788,0,0,0,0,0,0,0.3185,0.3211,0.3217,0.3222,0.3281,0.3355,0.3382,0.3414,0.3469,0.3471,0.3512,0.3526,0.3596,0.3607,0.359,0.3691,0.3666,0.3671,0.3693,0.37,0.3705,0.3674,0.3601,0,0,0,0,0,0.3171,0.3169,0.3221,0.3231,0.3252,0.3317,0.3352,0.339,0.3444,0.3469,0.3516,0.356,0.3616,0.3643,0.3692,0.3748,0.3746,0.3779,0.3785,0.3789,0.3772,0.3821,0.3829,0.3741,0.3741,0.3741,0,0,0.3165,0.3182,0.318,0.3226,0.3268,0.3315,0.3337,0.3396,0.3438,0.3472,0.3538,0.3588,0.3635,0.3705,0.3735,0.3718,0.381,0.3791,0.3795,0.3775,0.3824,0.3832,0.384,0.3743,0.3742,0.3742,0,0,0.316,0.3164,0.3164,0.321,0.3273,0.3322,0.3337,0.3416,0.3451,0.3521,0.356,0.3621,0.3699,0.3747,0.3778,0.3834,0.3841,0.3855,0.3857,0.3906,0.3913,0.392,0.3917,0.3922,0.3851,0.3851,0.3851,0,0.3154,0.3155,0.3185,0.3212,0.325,0.332,0.3355,0.3411,0.3503,0.3539,0.3539,0.3675,0.3716,0.3807,0.3824,0.3849,0.3857,0.3836,0.3913,0.392,0.3926,0.3921,0.3927,0.3854,0.3853,0.3853,0.3853,0,0.3153,0.3167,0.318,0.3224,0.3275,0.3322,0.3396,0.3456,0.3502,0.356,0.3656,0.3717,0.3793,0.3825,0.3841,0.3918,0.3903,0.3923,0.3899,0.3938,0.3929,0.3935,0.3857,0.3856,0.3856,0.3855,0,0,0.3104,0.3162,0.3165,0.3187,0.3283,0.3324,0.3403,0.3495,0.3542,0.363,0.3689,0.3792,0.3829,0.3863,0.3909,0.3941,0.3991,0.3943,0.3944,0.3938,0.4066,0.3943,0.3937,0.4036,0.4037,0.4038,0.4039,0,0.3096,0.3127,0.3169,0.3223,0.3251,0.3342,0.3405,0.3501,0.3579,0.3657,0.3738,0.3811,0.3845,0.388,0.3931,0.3983,0.4009,0.3986,0.4028,0.4028,0.3915,0.3941,0.3806,0.3786,0.4044,0.4045,0.4046,0,0.3072,0.31,0.3132,0.3211,0.323,0.3278,0.339,0.346,0.3595,0.3654,0.3757,0.382,0.3907,0.391,0.4016,0.4004,0.403,0.4053,0.4054,0.3921,0.3915,0.3791,0.3786,0.3716,0.4054,0.4053,0.4052,0,0.3004,0.3072,0.3089,0.3118,0.3223,0.3257,0.3323,0.3456,0.3514,0.3649,0.3696,0.3827,0.3872,0.3951,0.4009,0.4022,0.4087,0.4117,0.4027,0.4017,0.3895,0.3871,0.3822,0.4171,0.4171,0.4171,0.4171,0,0.2967,0.2982,0.3053,0.3064,0.3102,0.3195,0.3254,0.335,0.347,0.3543,0.3678,0.374,0.3884,0.3949,0.4006,0.4016,0.4095,0.4011,0.4014,0.3903,0.3882,0.3808,0.3762,0.4171,0.4171,0.4171,0.4171,0,0.2885,0.2929,0.2954,0.304,0.3065,0.309,0.3196,0.3248,0.337,0.3465,0.3501,0.3673,0.3764,0.3869,0.3976,0.398,0.3891,0.3999,0.3826,0.3806,0.363,0.3591,0.3348,0.3251,0.3894,0.3891,0.3888,0,0.2843,0.2844,0.2909,0.2922,0.2955,0.3008,0.3051,0.3184,0.3244,0.342,0.3452,0.3572,0.3667,0.3755,0.3787,0.3834,0.3767,0.3695,0.3691,0.3577,0.3539,0.3401,0.3329,0.3552,0.3547,0.3543,0.354,0,0.2772,0.2789,0.2811,0.2835,0.2864,0.2902,0.2971,0.2999,0.3163,0.3237,0.3349,0.3433,0.3544,0.3537,0.3571,0.3593,0.3488,0.3607,0.3564,0.3303,0.3076,0.2998,0.3569,0.3503,0.3506,0.3509,0.3511,0.3512,0.2715,0.2705,0.2728,0.2738,0.2769,0.2782,0.2773,0.2857,0.2916,0.3005,0.3171,0.3234,0.3318,0.3361,0.3343,0.3222,0.322,0.3153,0.3126,0.3006,0.2855,0.3297,0.3188,0.319,0.3192,0.3193,0.3194,0,0.2632,0.2624,0.2634,0.2631,0.2614,0.2671,0.2704,0.2676,0.2684,0.2821,0.2898,0.2965,0.2944,0.2997,0.2943,0.2806,0.2694,0.2707,0.2535,0.2503,0.2982,0.2915,0.265,0.265,0.265,0.265,0.265,0.265,0.2592,0.2545,0.2537,0.2469,0.2469,0.2405,0.2393,0.2375,0.2428,0.2449,0.2489,0.2572,0.2706,0.2669,0.2562,0.2497,0.2323,0.2133,0.2151,0.2567,0.2609,0.2649,0.2579,0.2248,0.2247,0.1597,0.1592,0.1588]},{"header":{"parameterUnit":"m.s-1","parameterCategory":2,"la1":30.2991,"la2":30.254,"lo1":-89.0895,"lo2":-89.0444,"dy":0.0017,"dx":0.0017,"nx":28,"ny":28,"refTime":"2023-10-27T03:00:00:Z","depth":"0","parameterNumber":3,"parameterNumberName":"V-component_of_CURRENTS"},"data":[0,0,0,0,0,0,0,0,0,0,0,0,0,0,0,0,0,0,0,0,0,0,0,0,0,0,0,0,0,0,0,0,0,0,0,0,0,0,0,0,0,0,0,0,0,0,0,0,0,0,0,0,0,0,0,0,0,0,0.0138,0.0137,0,0.0046,0.0044,0.0043,-0.001,-0.001,-0.001,-0.001,-0.0161,-0.0165,-0.0169,0,0,0,0,0,0,0,0,0,0,0,0,0,0.0187,0.0187,0.0138,0.0137,0.0136,0.0046,0.0044,0.0043,-0.001,-0.001,-0.001,-0.001,-0.016,-0.0165,-0.0169,0,0,0,0,0,0,0,0,0,0,0,0,0,0.0136,0.0187,0.0139,0.01,0.0096,0.0046,0.0044,0.0042,-0.001,-0.001,-0.001,-0.001,-0.0158,-0.0164,-0.017,-0.0206,0,0,-0.0188,-0.0191,0,0,0,0,0,0,0,0,0.0139,0.0134,0.0107,0.0103,0.0098,0.0031,0.0006,-0.0043,-0.001,0.0028,-0.001,-0.001,-0.0101,-0.0112,-0.0131,-0.0213,-0.022,-0.0189,-0.0192,-0.0195,-0.0197,0,0,0,0,0,0,0,0.0143,0.0137,0.01,0.0106,0.0101,0.006,0.0053,-0.0004,-0.0037,0.0025,0.0021,0.0014,-0.0104,-0.0125,-0.0135,-0.0222,-0.0189,-0.0194,-0.0198,-0.02,-0.031,-0.0309,0,0,0,0,0,0,0.0162,0.0141,0.0103,0.0097,0.0121,0.0059,0.0052,0.0051,-0.0036,-0.0048,0.0014,0.0012,-0.0115,-0.0128,-0.0141,-0.0161,-0.0195,-0.0201,-0.0204,-0.031,-0.0309,-0.0309,0,0,0,0,0,0,0.0164,0.016,0.0107,0.0118,0.0108,0.0059,0.0059,0.0049,0.0033,-0.0043,-0.0057,0.0009,-0.0115,-0.0132,-0.0176,-0.0169,-0.0203,-0.0209,-0.0311,-0.031,-0.0309,-0.0221,0,0,0,0,0,0,0.0165,0.0161,0.0167,0.012,0.0109,0.0088,0.0058,0.0048,0.0029,0.0026,-0.0053,-0.0067,-0.0117,-0.0166,-0.0182,-0.0178,-0.0213,-0.0312,-0.0311,-0.0309,-0.0225,-0.0217,-0.0211,0,0,0,0,0,0.0168,0.018,0.0168,0.0163,0.0119,0.0088,0.0079,0.0042,0.003,0.0026,-0.002,-0.0064,-0.0169,-0.0171,-0.0189,-0.0186,-0.0313,-0.0311,-0.031,-0.0228,-0.0219,-0.0211,0,0,0,0,0,0,0.02,0.0174,0.016,0.0163,0.0133,0.008,0.0076,0.0049,0.001,0.0009,-0.0062,-0.008,-0.0116,-0.016,-0.016,-0.0212,-0.0246,-0.0248,-0.0178,-0.017,-0.0163,-0.0118,-0.0218,0,0,0,0,0,0.0213,0.0218,0.0179,0.0181,0.0172,0.0125,0.0109,0.0085,0.0044,0.0027,-0.0025,-0.0078,-0.0126,-0.0152,-0.0203,-0.0235,-0.025,-0.0243,-0.0235,-0.0229,-0.0204,-0.0216,-0.0207,-0.0304,-0.0304,-0.0304,0,0,0.0225,0.0212,0.0214,0.0189,0.0164,0.016,0.0115,0.01,0.0098,0.0016,-0.0002,-0.006,-0.0129,-0.0161,-0.0181,-0.0196,-0.0209,-0.0227,-0.0221,-0.0199,-0.0213,-0.0203,-0.0195,-0.0303,-0.0303,-0.0303,0,0,0.0257,0.0245,0.026,0.0243,0.0216,0.019,0.0191,0.0146,0.0129,0.01,0.0045,0.0005,-0.0075,-0.0113,-0.0146,-0.0128,-0.0173,-0.0153,-0.0082,-0.0094,-0.0086,-0.0079,-0.0082,-0.0075,-0.0147,-0.0147,-0.0147,0,0.0273,0.0288,0.0257,0.0266,0.0262,0.0212,0.0225,0.0199,0.0146,0.0142,0.011,0.0019,-0.0046,-0.0074,-0.0068,-0.0112,-0.012,-0.0111,-0.0083,-0.0076,-0.007,-0.0075,-0.0069,-0.0142,-0.0143,-0.0143,-0.0144,0,0.0313,0.0324,0.0333,0.0333,0.0323,0.0327,0.0293,0.0283,0.0255,0.0228,0.0196,0.0114,0.0066,0.0032,-0.0017,-0.0011,-0.0032,-0.0074,-0.0099,-0.0055,-0.0063,-0.0059,-0.0136,-0.0138,-0.0139,-0.014,0,0,0.0355,0.0361,0.0367,0.0383,0.0363,0.0363,0.0367,0.0358,0.0377,0.0316,0.0331,0.0242,0.0203,0.0166,0.0096,0.0083,0.0103,0.0033,0.003,0.0041,0.0091,0.0069,0.0072,0.0066,0.0068,0.0069,0.007,0,0.0398,0.0438,0.0427,0.0467,0.0484,0.0453,0.0466,0.0452,0.0432,0.0433,0.036,0.0335,0.0251,0.0228,0.0204,0.0127,0.0119,0.0108,0.0038,0.0036,0.002,0.0078,0.0116,0.012,0.0074,0.0075,0.0075,0,0.0447,0.0468,0.0517,0.0545,0.0552,0.0569,0.0595,0.0599,0.0585,0.0568,0.0537,0.0473,0.0434,0.0357,0.0279,0.0277,0.0203,0.0145,0.0142,0.01,0.0024,0.0066,0.0129,0.0044,0.0081,0.0081,0.008,0,0.0503,0.0536,0.0584,0.0591,0.0609,0.0634,0.0646,0.0647,0.0673,0.0661,0.0679,0.0607,0.0582,0.0488,0.0351,0.0322,0.0275,0.021,0.0126,0.0123,0.0134,0.013,0.0119,0.0174,0.0174,0.0174,0.0174,0,0.0557,0.0595,0.0618,0.0644,0.071,0.0701,0.0772,0.0771,0.0793,0.0851,0.0759,0.0783,0.0617,0.0552,0.0417,0.03,0.0323,0.0168,0.0132,0.0164,0.0163,0.0068,-0.0016,0.0174,0.0174,0.0174,0.0174,0,0.0608,0.0623,0.0679,0.0717,0.074,0.0788,0.0854,0.0903,0.0915,0.0991,0.0991,0.093,0.0854,0.0684,0.0536,0.0397,0.0216,0.0216,0.0269,0.0239,0.0072,-0.001,-0.0063,-0.0118,0.0139,0.0139,0.0139,0,0.0636,0.0673,0.0738,0.0782,0.0805,0.0876,0.0931,0.0961,0.1024,0.1089,0.1136,0.108,0.1067,0.0841,0.0587,0.0371,0.0234,0.0238,0.018,0.0099,-0.0019,-0.0065,-0.0112,0.0229,0.0229,0.023,0.023,0,0.0687,0.0713,0.0758,0.0849,0.0918,0.1003,0.1088,0.1158,0.1217,0.1296,0.1382,0.1381,0.1172,0.0976,0.0656,0.0479,0.0182,0.0237,0.0146,0.0059,0.0018,-0.0065,0.019,0.0233,0.0233,0.0233,0.0233,0.0232,0.0725,0.0768,0.0833,0.0919,0.1004,0.1123,0.1208,0.1317,0.1448,0.1579,0.157,0.1621,0.133,0.0908,0.0651,0.0238,0.0202,0.012,0.0032,-0.0002,-0.0063,0.0203,0.0199,0.0199,0.0199,0.0198,0.0198,0,0.0767,0.0819,0.0898,0.1007,0.1107,0.1148,0.1307,0.1408,0.1585,0.1715,0.1803,0.1735,0.1366,0.0958,0.0394,0.0103,-0.001,-0.0054,-0.0098,-0.0137,0.0112,0.0109,0.0095,0.0095,0.0095,0.0095,0.0095,0.0095,0.0791,0.0869,0.0908,0.1073,0.1157,0.1305,0.1403,0.1566,0.1699,0.1888,0.1959,0.1978,0.1721,0.0752,0.0094,-0.0089,-0.0275,-0.0306,-0.0427,-0.0246,-0.0235,-0.0226,-0.0245,-0.0332,-0.0333,-0.0602,-0.0605,-0.0607]}],[{"header":{"parameterUnit":"m.s-1","parameterCategory":2,"la1":30.2991,"la2":30.254,"lo1":-89.0895,"lo2":-89.0444,"dy":0.0017,"dx":0.0017,"nx":28,"ny":28,"refTime":"2023-10-27T03:00:00:Z","depth":"2","parameterNumber":2,"parameterNumberName":"U-component_of_CURRENTS"},"data":[0,0,0,0,0,0,0,0,0,0,0,0,0,0,0,0,0,0,0,0,0,0,0,0,0,0,0,0,0,0,0,0,0,0,0,0,0,0,0,0,0,0,0,0,0,0,0,0,0,0,0,0,0,0,0,0,0,0,0.2707,0.2707,0,0.2711,0.2711,0.2711,0.2712,0.2712,0.2712,0.2712,0.2719,0.272,0.272,0,0,0,0,0,0,0,0,0,0,0,0,0,0.2698,0.2698,0.2707,0.2707,0.2707,0.2711,0.2711,0.2711,0.2712,0.2712,0.2712,0.2712,0.2719,0.272,0.272,0,0,0,0,0,0,0,0,0,0,0,0,0,0.2702,0.2698,0.2706,0.2708,0.2708,0.2711,0.2711,0.2711,0.2712,0.2712,0.2712,0.2712,0.2719,0.272,0.272,0.2723,0,0,0.2721,0.2721,0,0,0,0,0,0,0,0,0.2702,0.2702,0.2707,0.2708,0.2708,0.2711,0.2711,0.2715,0.2712,0.271,0.2712,0.2712,0.2717,0.2718,0.2718,0.2723,0.2723,0.2721,0.2721,0.2721,0.2721,0,0,0,0,0,0,0,0.2702,0.2702,0.2708,0.2708,0.2708,0.2708,0.2709,0.2712,0.2714,0.2711,0.2711,0.2712,0.2717,0.2718,0.2718,0.2723,0.2721,0.2721,0.2721,0.2721,0.2763,0.2764,0,0,0,0,0,0,0.2701,0.2702,0.2708,0.2708,0.2705,0.2708,0.2709,0.271,0.2714,0.2714,0.2712,0.2712,0.2717,0.2718,0.2719,0.2768,0.2721,0.2721,0.2722,0.2762,0.2763,0.2764,0,0,0,0,0,0,0.2701,0.2702,0.2708,0.2705,0.2706,0.2709,0.271,0.271,0.2721,0.2714,0.2715,0.2723,0.2717,0.2718,0.2716,0.2766,0.2722,0.2722,0.2761,0.2762,0.2764,0.2837,0,0,0,0,0,0,0.2701,0.2702,0.2706,0.2705,0.2706,0.2719,0.271,0.271,0.2721,0.2721,0.2725,0.2724,0.2717,0.2716,0.2717,0.2766,0.2722,0.276,0.2762,0.2763,0.2833,0.284,0.2846,0,0,0,0,0,0.2701,0.2706,0.2707,0.2708,0.2711,0.2719,0.272,0.2721,0.2722,0.2731,0.2721,0.2725,0.2729,0.2716,0.2717,0.2768,0.2759,0.2761,0.2763,0.283,0.2839,0.2846,0,0,0,0,0,0,0.2701,0.2707,0.2707,0.2713,0.272,0.272,0.2729,0.2729,0.273,0.2732,0.2723,0.2722,0.2759,0.2736,0.2723,0.2783,0.2751,0.2753,0.2801,0.281,0.2816,0.2808,0.2722,0,0,0,0,0,0.2704,0.2713,0.2716,0.2723,0.2729,0.2732,0.2736,0.274,0.2738,0.2739,0.2741,0.2744,0.2767,0.2762,0.2781,0.2789,0.2784,0.2825,0.2832,0.2838,0.2831,0.2868,0.2878,0.2771,0.2771,0.2771,0,0,0.2704,0.271,0.2714,0.2724,0.273,0.2741,0.2735,0.275,0.276,0.274,0.2758,0.278,0.2779,0.2809,0.2822,0.2791,0.2866,0.284,0.2846,0.2835,0.2871,0.2882,0.2891,0.2772,0.2772,0.2772,0,0,0.2707,0.2718,0.2725,0.2736,0.2751,0.2756,0.2764,0.2775,0.2784,0.2796,0.2806,0.2835,0.2846,0.2861,0.2868,0.2913,0.2918,0.2936,0.2945,0.2982,0.2991,0.2999,0.3009,0.3017,0.2918,0.2918,0.2918,0,0.2707,0.2715,0.2729,0.274,0.275,0.2765,0.2776,0.2789,0.2799,0.2816,0.2808,0.2871,0.2872,0.292,0.2934,0.2933,0.2943,0.2918,0.2992,0.3,0.3007,0.3015,0.3023,0.2922,0.2921,0.2921,0.2921,0,0.2711,0.2723,0.2732,0.2752,0.2768,0.2782,0.2802,0.2826,0.2843,0.286,0.2923,0.293,0.2963,0.2985,0.2965,0.3032,0.3021,0.3018,0.2975,0.3023,0.3027,0.3034,0.2927,0.2926,0.2925,0.2924,0,0,0.2687,0.2726,0.2728,0.2739,0.2776,0.2784,0.2822,0.2857,0.2886,0.2922,0.2962,0.3012,0.3037,0.3044,0.3056,0.307,0.3127,0.3057,0.3057,0.3071,0.3199,0.313,0.3131,0.3148,0.315,0.3151,0.3183,0,0.2682,0.2701,0.2728,0.2749,0.276,0.28,0.2831,0.2873,0.2911,0.2955,0.3,0.3049,0.3055,0.308,0.3107,0.3133,0.315,0.3118,0.3145,0.3145,0.3083,0.3138,0.2885,0.2888,0.319,0.3191,0.3192,0,0.2667,0.2686,0.2704,0.2749,0.2759,0.2781,0.2842,0.2873,0.2951,0.2986,0.3056,0.3094,0.3149,0.3133,0.3207,0.3192,0.3197,0.3203,0.3205,0.3116,0.3089,0.2888,0.2889,0.3204,0.3203,0.3202,0.3201,0,0.2625,0.2665,0.2679,0.2692,0.2748,0.2774,0.2811,0.2887,0.2923,0.301,0.3053,0.3136,0.318,0.3217,0.3243,0.3233,0.3302,0.329,0.3233,0.3227,0.3001,0.2972,0.3331,0.3331,0.3331,0.3331,0.3331,0,0.2599,0.2608,0.2661,0.2666,0.2695,0.2749,0.2794,0.2849,0.2932,0.2983,0.307,0.3124,0.3206,0.3258,0.3264,0.3275,0.333,0.3241,0.3238,0.3018,0.2992,0.3252,0.3242,0.3332,0.3332,0.3332,0.3332,0,0.2543,0.2577,0.2593,0.2652,0.2671,0.2692,0.2771,0.2804,0.2902,0.297,0.3003,0.3131,0.3207,0.3265,0.3323,0.3299,0.3309,0.3293,0.3019,0.2983,0.3199,0.3193,0.3233,0.3231,0.3229,0.3228,0.3227,0,0.2515,0.2518,0.2566,0.2574,0.26,0.2643,0.2672,0.2772,0.2813,0.2966,0.2991,0.3109,0.3168,0.3236,0.3212,0.3213,0.3285,0.2969,0.2901,0.32,0.3193,0.3189,0.3186,0.2627,0.2621,0.2616,0.2612,0,0.2464,0.2482,0.2496,0.2512,0.2535,0.2557,0.2613,0.2637,0.276,0.2825,0.2917,0.2979,0.3071,0.2966,0.2983,0.2949,0.2949,0.2869,0.326,0.2698,0.2633,0.2625,0.264,0.2568,0.2572,0.2576,0.2578,0.258,0.2423,0.2416,0.2433,0.2435,0.2456,0.2454,0.2437,0.2501,0.2542,0.2604,0.2746,0.2747,0.2784,0.2684,0.2598,0.253,0.2741,0.2604,0.2616,0.2635,0.2567,0.2503,0.2399,0.2403,0.2406,0.2408,0.241,0,0.2356,0.2352,0.2353,0.2339,0.2309,0.2361,0.2375,0.2333,0.2322,0.2409,0.2455,0.2271,0.2203,0.2239,0.207,0.207,0.2032,0.1981,0.1901,0.1948,0.1988,0.1885,0.1537,0.1534,0.1531,0.1529,0,0,0.2323,0.2285,0.2271,0.2188,0.2178,0.2106,0.2084,0.2045,0.206,0.2012,0.1984,0.2127,0.2192,0.1838,0.1791,0.1632,0.1777,0.1569,0.2276,0.2231,0.2268,0.2361,0.2257,0,0,0,0,0]},{"header":{"parameterUnit":"m.s-1","parameterCategory":2,"la1":30.2991,"la2":30.254,"lo1":-89.0895,"lo2":-89.0444,"dy":0.0017,"dx":0.0017,"nx":28,"ny":28,"refTime":"2023-10-27T03:00:00:Z","depth":"2","parameterNumber":3,"parameterNumberName":"V-component_of_CURRENTS"},"data":[0,0,0,0,0,0,0,0,0,0,0,0,0,0,0,0,0,0,0,0,0,0,0,0,0,0,0,0,0,0,0,0,0,0,0,0,0,0,0,0,0,0,0,0,0,0,0,0,0,0,0,0,0,0,0,0,0,0,0.0275,0.0275,0,0.0252,0.0252,0.0252,0.0233,0.0233,0.0233,0.0233,0.0193,0.0192,0.0191,0,0,0,0,0,0,0,0,0,0,0,0,0,0.029,0.029,0.0275,0.0275,0.0275,0.0252,0.0252,0.0252,0.0233,0.0233,0.0233,0.0233,0.0193,0.0192,0.0191,0,0,0,0,0,0,0,0,0,0,0,0,0,0.0277,0.029,0.0275,0.0263,0.0262,0.0253,0.0252,0.0252,0.0233,0.0233,0.0233,0.0233,0.0194,0.0192,0.0191,0.0188,0,0,0.0187,0.0186,0,0,0,0,0,0,0,0,0.0278,0.0276,0.0265,0.0264,0.0262,0.0246,0.0243,0.023,0.0233,0.0244,0.0233,0.0232,0.0209,0.0207,0.0203,0.0186,0.0184,0.0187,0.0186,0.0185,0.0185,0,0,0,0,0,0,0,0.0279,0.0277,0.0266,0.0265,0.0263,0.0254,0.0252,0.024,0.0228,0.0243,0.0242,0.024,0.0209,0.0204,0.0202,0.0183,0.0187,0.0186,0.0185,0.0184,0.0168,0.0169,0,0,0,0,0,0,0.0283,0.0278,0.0267,0.0265,0.027,0.0254,0.0252,0.0251,0.0228,0.0225,0.024,0.0239,0.0207,0.0203,0.02,0.0208,0.0185,0.0184,0.0183,0.0168,0.0168,0.0169,0,0,0,0,0,0,0.0284,0.0282,0.0268,0.0271,0.0269,0.0255,0.0253,0.0251,0.025,0.0226,0.0222,0.0242,0.0206,0.0202,0.0202,0.0206,0.0183,0.0182,0.0167,0.0168,0.0169,0.0215,0,0,0,0,0,0,0.0284,0.0283,0.0287,0.0272,0.0269,0.027,0.0254,0.025,0.0249,0.0247,0.0227,0.0222,0.0206,0.0205,0.0201,0.0204,0.0181,0.0167,0.0168,0.0168,0.0213,0.0217,0.0221,0,0,0,0,0,0.0285,0.0294,0.0287,0.0286,0.0274,0.0271,0.0269,0.0257,0.0249,0.0254,0.0244,0.0223,0.0206,0.0204,0.02,0.0202,0.0167,0.0167,0.0168,0.0212,0.0217,0.0221,0,0,0,0,0,0,0.0303,0.0292,0.0285,0.029,0.0283,0.0268,0.0272,0.0262,0.0257,0.0258,0.0234,0.0229,0.0226,0.0211,0.021,0.0199,0.0181,0.0181,0.0215,0.0219,0.0223,0.0242,0.018,0,0,0,0,0,0.0309,0.0314,0.0299,0.0305,0.0303,0.0288,0.0286,0.0279,0.0271,0.0268,0.0254,0.0239,0.0225,0.0222,0.0207,0.0208,0.0184,0.0204,0.0208,0.0212,0.0224,0.0193,0.0196,0.0172,0.0172,0.0172,0,0,0.0319,0.0313,0.0316,0.031,0.0304,0.0312,0.0287,0.0289,0.0298,0.0265,0.0275,0.0251,0.0228,0.0227,0.0224,0.0217,0.0204,0.0213,0.0216,0.0226,0.0194,0.0197,0.0199,0.0172,0.0172,0.0172,0,0,0.0344,0.0335,0.0348,0.0346,0.034,0.0334,0.0337,0.0325,0.0321,0.0324,0.03,0.0287,0.0269,0.0256,0.0245,0.0263,0.0223,0.0251,0.0289,0.026,0.0261,0.0263,0.0228,0.0225,0.0256,0.0256,0.0256,0,0.0355,0.0369,0.0352,0.0364,0.0371,0.0347,0.0367,0.036,0.0351,0.0354,0.0335,0.0308,0.0284,0.0284,0.0288,0.0272,0.0246,0.0274,0.0265,0.0266,0.0266,0.023,0.0227,0.0259,0.0258,0.0258,0.0258,0,0.0389,0.0401,0.041,0.042,0.0424,0.0437,0.0427,0.043,0.0418,0.0409,0.0402,0.0367,0.0353,0.0335,0.0317,0.0311,0.0288,0.027,0.0254,0.0272,0.0232,0.0228,0.0262,0.0261,0.0261,0.026,0,0,0.0419,0.0432,0.0437,0.0455,0.0456,0.0468,0.0482,0.0491,0.051,0.0479,0.0493,0.0456,0.0431,0.0418,0.0384,0.0357,0.0329,0.0321,0.0318,0.0289,0.0258,0.0254,0.0249,0.0307,0.0307,0.0307,0.0226,0,0.0455,0.0492,0.0489,0.0534,0.0555,0.0543,0.0563,0.0566,0.0559,0.0565,0.0518,0.0514,0.0464,0.0456,0.0421,0.0359,0.0323,0.0353,0.0244,0.0241,0.0237,0.0246,0.0266,0.0197,0.0222,0.0221,0.022,0,0.0496,0.0516,0.0564,0.0599,0.0608,0.0632,0.0666,0.0681,0.0675,0.0666,0.0644,0.0604,0.0567,0.0515,0.0415,0.0436,0.0354,0.0294,0.0289,0.0271,0.023,0.0185,0.0188,0.0213,0.0214,0.0214,0.0215,0,0.0539,0.0575,0.0619,0.063,0.066,0.0685,0.0704,0.0715,0.0743,0.0732,0.0745,0.0682,0.0661,0.0554,0.0433,0.0421,0.0316,0.028,0.0194,0.0192,0.0182,0.018,0.0199,0.0199,0.0199,0.02,0.02,0,0.0584,0.0621,0.0645,0.0671,0.0734,0.0736,0.0801,0.0808,0.0828,0.0875,0.0805,0.082,0.067,0.0591,0.0461,0.0327,0.0333,0.0207,0.0176,0.0198,0.0199,0.0194,0.0194,0.0197,0.0197,0.0198,0.0198,0,0.0626,0.064,0.0694,0.0735,0.0758,0.0804,0.0869,0.0914,0.0923,0.0981,0.0981,0.0924,0.0828,0.0669,0.05,0.0379,0.0239,0.0182,0.0218,0.0194,0.0121,0.0125,0.0076,0.0075,0.0074,0.0074,0.0073,0,0.065,0.0682,0.0746,0.0786,0.081,0.0877,0.0929,0.0961,0.1014,0.1054,0.1088,0.1013,0.0981,0.0733,0.0507,0.0281,0.0242,0.0139,0.0119,0.0136,0.0111,0.0116,0.012,0.0113,0.0112,0.0112,0.0112,0,0.0694,0.0717,0.0759,0.084,0.0905,0.0984,0.1062,0.1118,0.1168,0.1219,0.1265,0.1241,0.102,0.0807,0.0501,0.0342,0.0179,0.0131,0.014,0.0151,0.0167,0.0144,0.0148,0.0112,0.0112,0.0112,0.0112,0.0112,0.0727,0.0763,0.082,0.0899,0.0977,0.1081,0.1154,0.1241,0.134,0.1413,0.139,0.1354,0.1113,0.0727,0.0468,0.0184,0.0191,0.0076,0.0078,0.0079,0.0108,0.0124,0.0065,0.0064,0.0064,0.0064,0.0064,0,0.0761,0.0804,0.0874,0.097,0.1058,0.11,0.1235,0.131,0.1434,0.1487,0.1519,0.1288,0.1054,0.0767,0.0361,0.0123,0.0095,0.0031,0.0054,0.0057,0.0059,0.0088,0.0038,0.0037,0.0036,0.0035,0,0,0.078,0.0844,0.0876,0.1017,0.1093,0.1221,0.1303,0.1414,0.1484,0.1538,0.1511,0.1457,0.1131,0.0832,0.0511,0.0277,0.0216,0.022,0.0266,0.0335,0.0339,0.011,0.0161,0,0,0,0,0]}],[{"header":{"parameterUnit":"m.s-1","parameterCategory":2,"la1":30.2991,"la2":30.254,"lo1":-89.0895,"lo2":-89.0444,"dy":0.0017,"dx":0.0017,"nx":28,"ny":28,"refTime":"2023-10-27T03:00:00:Z","depth":"4","parameterNumber":2,"parameterNumberName":"U-component_of_CURRENTS"},"data":[0,0,0,0,0,0,0,0,0,0,0,0,0,0,0,0,0,0,0,0,0,0,0,0,0,0,0,0,0,0,0,0,0,0,0,0,0,0,0,0,0,0,0,0,0,0,0,0,0,0,0,0,0,0,0,0,0,0,0.1761,0.1761,0,0.1737,0.1736,0.1735,0.1739,0.174,0.174,0.1741,0.1746,0.1746,0.1745,0,0,0,0,0,0,0,0,0,0,0,0,0,0.1723,0.1724,0.1761,0.1761,0.1761,0.1737,0.1736,0.1735,0.1738,0.174,0.1741,0.1742,0.1746,0.1746,0.1745,0,0,0,0,0,0,0,0,0,0,0,0,0,0.1718,0.1724,0.1761,0.1764,0.1765,0.1737,0.1736,0.1735,0.1738,0.174,0.1741,0.1742,0.1747,0.1746,0.1745,0.1709,0,0,0.1741,0.1741,0,0,0,0,0,0,0,0,0.1718,0.1719,0.1764,0.1764,0.1765,0.1747,0.1725,0.173,0.1738,0.1742,0.1741,0.1743,0.1752,0.1751,0.1734,0.171,0.171,0.1741,0.174,0.174,0.174,0,0,0,0,0,0,0,0.1719,0.1719,0.1745,0.1764,0.1765,0.1738,0.1739,0.1725,0.1735,0.1742,0.1743,0.175,0.1752,0.1735,0.1734,0.171,0.1741,0.174,0.1739,0.1739,0.1779,0.1781,0,0,0,0,0,0,0.1737,0.172,0.1746,0.1745,0.1751,0.1738,0.1739,0.1747,0.1735,0.1736,0.1749,0.175,0.1736,0.1736,0.1735,0.1799,0.174,0.1739,0.1738,0.1778,0.178,0.1782,0,0,0,0,0,0,0.1736,0.1739,0.1747,0.1737,0.1737,0.1739,0.1746,0.1746,0.1773,0.1741,0.1742,0.1783,0.1737,0.1736,0.1759,0.1795,0.1738,0.1737,0.1776,0.1778,0.1781,0.1859,0,0,0,0,0,0,0.1735,0.1739,0.1763,0.1738,0.1738,0.1759,0.1746,0.1744,0.1775,0.1777,0.177,0.1769,0.1738,0.1761,0.1758,0.1793,0.1736,0.1773,0.1777,0.178,0.1855,0.1864,0.1873,0,0,0,0,0,0.1734,0.1753,0.1764,0.1769,0.1767,0.1761,0.1758,0.1759,0.1776,0.1789,0.179,0.1771,0.178,0.1761,0.1757,0.1793,0.1772,0.1776,0.178,0.1851,0.1862,0.1873,0,0,0,0,0,0,0.1742,0.1755,0.1767,0.179,0.1793,0.1765,0.1782,0.1786,0.1794,0.1811,0.1784,0.1783,0.1816,0.1796,0.1776,0.1816,0.1777,0.178,0.1832,0.1843,0.1852,0.1858,0.1736,0,0,0,0,0,0.1759,0.1786,0.1784,0.1807,0.1815,0.181,0.1816,0.1819,0.1817,0.1824,0.1821,0.1822,0.1819,0.1828,0.1818,0.1837,0.1832,0.1862,0.1871,0.1879,0.1883,0.1912,0.1924,0.1795,0.1795,0.1795,0,0,0.177,0.1782,0.1799,0.1814,0.1817,0.1823,0.1816,0.1839,0.1852,0.1823,0.1855,0.1854,0.1832,0.1851,0.1866,0.1846,0.1916,0.1884,0.189,0.189,0.1917,0.193,0.1941,0.1797,0.1797,0.1796,0,0,0.1786,0.1819,0.184,0.1849,0.1871,0.1864,0.1885,0.1887,0.1903,0.1926,0.1913,0.194,0.1935,0.1927,0.192,0.1977,0.1961,0.1985,0.2037,0.2066,0.2077,0.2086,0.2107,0.2117,0.1992,0.1992,0.1992,0,0.1802,0.1824,0.1844,0.1859,0.1874,0.1891,0.1906,0.1914,0.1927,0.1949,0.1955,0.1977,0.1967,0.1986,0.2008,0.1997,0.201,0.1995,0.2078,0.2087,0.2095,0.2114,0.2124,0.1997,0.1996,0.1996,0.1995,0,0.1814,0.1847,0.1861,0.1889,0.1906,0.1927,0.1942,0.1975,0.2007,0.2016,0.2067,0.2058,0.2076,0.2082,0.206,0.2117,0.2106,0.2084,0.2049,0.2113,0.2128,0.2138,0.2003,0.2001,0.2,0.1999,0,0,0.1804,0.1861,0.1869,0.189,0.1929,0.1935,0.198,0.2013,0.2052,0.2087,0.2134,0.2149,0.2173,0.2167,0.216,0.2185,0.2257,0.217,0.217,0.2188,0.2328,0.218,0.2176,0.2257,0.2259,0.226,0.2319,0,0.1809,0.1845,0.1876,0.1912,0.1928,0.197,0.2004,0.2045,0.2088,0.2138,0.2167,0.2206,0.2196,0.2223,0.2251,0.2255,0.2285,0.2243,0.2265,0.2265,0.2124,0.2182,0.2266,0.2326,0.2328,0.233,0.2331,0,0.18,0.1829,0.1871,0.1927,0.1941,0.1973,0.2044,0.2078,0.2153,0.2192,0.2253,0.2276,0.2334,0.2311,0.2371,0.2351,0.2354,0.235,0.2352,0.2189,0.2134,0.2247,0.2348,0.2346,0.2345,0.2344,0.2343,0,0.176,0.182,0.1859,0.1877,0.1943,0.1987,0.2033,0.2107,0.2147,0.2243,0.2289,0.2355,0.2402,0.2426,0.2439,0.2421,0.2488,0.2455,0.2322,0.2312,0.2393,0.2382,0.2494,0.2494,0.2494,0.2494,0.2494,0,0.1729,0.1762,0.1854,0.187,0.1923,0.1984,0.2052,0.2108,0.2196,0.2243,0.2327,0.2364,0.2437,0.2479,0.2474,0.2431,0.2526,0.2339,0.2318,0.2426,0.2418,0.24,0.2388,0.2496,0.2495,0.2495,0.2495,0,0.167,0.1732,0.1778,0.1871,0.1906,0.1948,0.2055,0.2091,0.2198,0.2264,0.2303,0.2403,0.2456,0.2501,0.254,0.2461,0.2438,0.2396,0.2523,0.2508,0.2235,0.2227,0.2251,0.2246,0.2242,0.2239,0.2236,0,0.1638,0.1661,0.177,0.18,0.1851,0.1927,0.1969,0.208,0.2116,0.226,0.2273,0.2378,0.2426,0.2365,0.2427,0.2413,0.2375,0.2347,0.2272,0.2233,0.2212,0.221,0.2208,0.223,0.2229,0.2228,0.2227,0,0.1576,0.1637,0.1677,0.1741,0.1797,0.1839,0.1916,0.1929,0.2049,0.2167,0.2181,0.2197,0.225,0.2267,0.2277,0.2258,0.2355,0.2304,0.2312,0.2241,0.2208,0.219,0.2192,0.2213,0.2215,0.2216,0.2217,0,0.1539,0.1553,0.1619,0.1654,0.1719,0.1724,0.1778,0.181,0.1859,0.2011,0.2015,0.2121,0.223,0.2188,0.2197,0.2172,0.2127,0.2034,0.2055,0.2071,0.1981,0.191,0.1812,0,0,0,0,0,0.1486,0.1486,0.152,0.1543,0.1599,0.1633,0.1721,0.1775,0.1896,0.1852,0.1924,0.1958,0.1967,0.2023,0.1958,0.2122,0.2143,0.2037,0.2049,0.2136,0.2152,0.2061,0,0,0,0,0,0,0.1449,0.1487,0.1483,0.1438,0.1432,0.1474,0.1525,0.1609,0.1588,0.1722,0.1737,0.1835,0.1877,0.1983,0.192,0.1936,0.19,0.2107,0.2101,0.2127,0.2141,0.2154,0.2066,0,0,0,0,0]},{"header":{"parameterUnit":"m.s-1","parameterCategory":2,"la1":30.2991,"la2":30.254,"lo1":-89.0895,"lo2":-89.0444,"dy":0.0017,"dx":0.0017,"nx":28,"ny":28,"refTime":"2023-10-27T03:00:00:Z","depth":"4","parameterNumber":3,"parameterNumberName":"V-component_of_CURRENTS"},"data":[0,0,0,0,0,0,0,0,0,0,0,0,0,0,0,0,0,0,0,0,0,0,0,0,0,0,0,0,0,0,0,0,0,0,0,0,0,0,0,0,0,0,0,0,0,0,0,0,0,0,0,0,0,0,0,0,0,0,0.0254,0.0254,0,0.0254,0.0254,0.0254,0.0257,0.0258,0.0258,0.0258,0.0254,0.0254,0.0254,0,0,0,0,0,0,0,0,0,0,0,0,0,0.0254,0.0254,0.0254,0.0254,0.0254,0.0254,0.0254,0.0254,0.0257,0.0258,0.0258,0.0258,0.0254,0.0254,0.0254,0,0,0,0,0,0,0,0,0,0,0,0,0,0.0255,0.0254,0.0254,0.0255,0.0255,0.0254,0.0254,0.0254,0.0257,0.0258,0.0258,0.0258,0.0254,0.0254,0.0254,0.0252,0,0,0.0253,0.0253,0,0,0,0,0,0,0,0,0.0255,0.0255,0.0255,0.0255,0.0255,0.0255,0.0253,0.0253,0.0257,0.0257,0.0258,0.0258,0.0253,0.0253,0.0254,0.0252,0.0251,0.0253,0.0253,0.0253,0.0253,0,0,0,0,0,0,0,0.0255,0.0255,0.0255,0.0255,0.0255,0.0255,0.0255,0.0253,0.0256,0.0257,0.0257,0.0256,0.0254,0.0254,0.0254,0.0251,0.0253,0.0253,0.0253,0.0253,0.0255,0.0256,0,0,0,0,0,0,0.0254,0.0255,0.0255,0.0255,0.0254,0.0255,0.0255,0.0256,0.0256,0.0256,0.0256,0.0256,0.0255,0.0254,0.0254,0.027,0.0253,0.0253,0.0253,0.0255,0.0256,0.0256,0,0,0,0,0,0,0.0254,0.0254,0.0255,0.0254,0.0254,0.0255,0.0255,0.0256,0.0263,0.0255,0.0255,0.0264,0.0255,0.0254,0.0261,0.0269,0.0253,0.0252,0.0255,0.0255,0.0256,0.0289,0,0,0,0,0,0,0.0254,0.0254,0.0259,0.0254,0.0254,0.0261,0.0255,0.0256,0.0262,0.0262,0.0262,0.0261,0.0255,0.0262,0.0261,0.0268,0.0252,0.0255,0.0255,0.0256,0.0288,0.029,0.0293,0,0,0,0,0,0.0254,0.0262,0.0259,0.026,0.026,0.0262,0.0262,0.0263,0.0262,0.0269,0.0269,0.0261,0.0263,0.0262,0.0261,0.0268,0.0255,0.0255,0.0256,0.0287,0.029,0.0293,0,0,0,0,0,0,0.0266,0.0262,0.026,0.0267,0.0267,0.0262,0.027,0.0268,0.0273,0.0276,0.0267,0.0267,0.0275,0.0266,0.0265,0.0269,0.0256,0.0256,0.028,0.0283,0.0285,0.0296,0.0252,0,0,0,0,0,0.027,0.0277,0.027,0.0278,0.0278,0.0275,0.0278,0.0277,0.0278,0.0281,0.028,0.0277,0.0275,0.0275,0.0273,0.0278,0.0255,0.028,0.0282,0.0284,0.0292,0.0258,0.0258,0.0257,0.0257,0.0257,0,0,0.0278,0.0277,0.0281,0.0281,0.0282,0.0292,0.0278,0.0285,0.0297,0.0279,0.0298,0.0288,0.0278,0.0285,0.0287,0.0279,0.0272,0.0285,0.0287,0.0293,0.0259,0.0259,0.0259,0.0257,0.0257,0.0257,0,0,0.0296,0.0295,0.0306,0.0308,0.031,0.0309,0.0313,0.0313,0.0316,0.0326,0.0317,0.0312,0.0313,0.0305,0.0301,0.0315,0.0287,0.0313,0.0335,0.0302,0.0302,0.0301,0.0268,0.0265,0.0313,0.0313,0.0313,0,0.0305,0.0319,0.031,0.0322,0.0331,0.032,0.0338,0.0338,0.0341,0.0347,0.0338,0.0333,0.0322,0.0326,0.033,0.0322,0.0298,0.0325,0.0305,0.0304,0.0303,0.0269,0.0265,0.0315,0.0314,0.0314,0.0314,0,0.033,0.0344,0.0352,0.0365,0.0372,0.0386,0.0384,0.0392,0.0392,0.039,0.0394,0.0374,0.0371,0.0361,0.0352,0.0343,0.0327,0.0313,0.0298,0.0306,0.0269,0.0264,0.0317,0.0316,0.0316,0.0316,0,0,0.0348,0.0366,0.0372,0.039,0.0398,0.041,0.0426,0.0439,0.0457,0.0443,0.0456,0.0439,0.0423,0.0417,0.0396,0.0366,0.0333,0.0341,0.0338,0.031,0.0259,0.025,0.0243,0.0315,0.0314,0.0314,0.0235,0,0.0374,0.0406,0.0409,0.045,0.0469,0.0468,0.0488,0.0497,0.0498,0.0506,0.0473,0.0479,0.0446,0.0445,0.0409,0.036,0.0322,0.0356,0.0255,0.0252,0.0245,0.0238,0.0312,0.0231,0.0229,0.0229,0.0228,0,0.0402,0.0421,0.0463,0.05,0.0509,0.0534,0.0569,0.0585,0.0585,0.0582,0.0568,0.0543,0.0509,0.0474,0.0382,0.0406,0.0337,0.0287,0.0282,0.0261,0.0234,0.0222,0.0218,0.0219,0.022,0.022,0.0221,0,0.0426,0.0464,0.0503,0.0515,0.0549,0.0575,0.0599,0.0613,0.0638,0.0634,0.0645,0.0593,0.0576,0.0484,0.0383,0.0381,0.027,0.0252,0.0175,0.0173,0.019,0.0191,0.0175,0.0175,0.0175,0.0175,0.0175,0,0.0453,0.0488,0.0523,0.0546,0.0603,0.0615,0.0674,0.0685,0.0705,0.0739,0.0692,0.0695,0.0578,0.0502,0.0396,0.0274,0.0276,0.0179,0.0153,0.0205,0.0209,0.0185,0.0188,0.0172,0.0173,0.0173,0.0174,0,0.0475,0.0495,0.0546,0.0594,0.0619,0.0662,0.0731,0.0767,0.0781,0.0821,0.0823,0.0771,0.0677,0.0548,0.0397,0.0302,0.0178,0.0129,0.0198,0.0177,0.0097,0.0102,0.0037,0.0036,0.0036,0.0035,0.0034,0,0.0486,0.0514,0.0586,0.0624,0.0654,0.072,0.0768,0.0804,0.0843,0.0868,0.0885,0.0816,0.0762,0.0544,0.0403,0.0194,0.016,0.0086,0.0087,0.0102,0.0083,0.009,0.0095,0.0033,0.0033,0.0033,0.0032,0,0.0507,0.0537,0.0578,0.0656,0.0719,0.079,0.0859,0.0891,0.0933,0.0947,0.0931,0.0828,0.0721,0.055,0.0388,0.0238,0.013,0.0077,0.0077,0.0078,0.0096,0.008,0.0086,0.003,0.003,0.003,0.003,0,0.0525,0.0555,0.0612,0.0681,0.0762,0.0837,0.0874,0.0916,0.0953,0.0972,0.0965,0.0854,0.0791,0.0572,0.0426,0.0277,0.0234,0.0169,0.0164,0.0165,0.0224,0.0268,0.0232,0,0,0,0,0,0.0536,0.0569,0.0631,0.0707,0.0788,0.0839,0.0924,0.0952,0.0992,0.0984,0.0975,0.0875,0.067,0.0586,0.0435,0.0401,0.0202,0.0216,0.0124,0.0014,0.0017,0.0064,0,0,0,0,0,0,0.0541,0.0597,0.0624,0.0717,0.0772,0.0865,0.0923,0.0953,0.0945,0.0962,0.0856,0.0818,0.062,0.0753,0.0426,0.0384,0.0299,0.0128,0.0124,0.0012,0.0015,0.0018,0.0067,0,0,0,0,0]}]]